Location: �perlecques
(50.8057°N, 2.1521°E)
Time: 16:20:03
(UTC+00:00)

N. Korean satellite - Visible Passes

Search period start: 04 December 2022 00:00
Search period end: 14 December 2022 00:00
Orbit: 421 x 453 km, 97.3° (Epoch: 03 December)

Date Brightness Start Highest point End Pass type
(mag) Time Alt. Az. Time Alt. Az. Time Alt. Az.
04 Dec 7.4 05:01:20 10° NNE 05:04:40 48° E 05:07:57 10° S visible
04 Dec 8.1 06:34:45 10° NNW 06:36:50 15° WNW 06:38:53 10° W visible
04 Dec 9.4 17:08:30 10° SW 17:11:03 20° W 17:13:38 10° NW visible
05 Dec 9.3 04:23:10 10° NE 04:25:33 18° E 04:27:56 10° SE visible
05 Dec 6.9 05:55:03 10° N 05:58:13 37° WNW 06:01:22 10° SW visible
05 Dec 7.3 16:28:37 10° S 16:31:57 54° W 16:35:20 10° NNW visible
06 Dec 6.5 05:15:57 10° NNE 05:19:22 74° ESE 05:22:44 10° S visible
06 Dec 8.4 06:50:18 10° NW 06:51:21 11° WNW 06:52:23 10° WNW visible
06 Dec 9.7 17:23:58 10° WSW 17:25:49 14° W 17:27:42 10° WNW visible
07 Dec 8.7 04:37:24 10° NE 04:40:17 25° E 04:43:07 10° SSE visible
07 Dec 7.4 06:09:52 10° N 06:12:45 26° WNW 06:15:36 10° SW visible
07 Dec 8.2 16:43:24 10° SSW 16:46:34 36° W 16:49:47 10° NNW visible
08 Dec 6.2 05:30:30 10° N 05:33:55 73° WNW 05:37:15 10° SSW visible
09 Dec 7.9 04:51:39 10° NNE 04:54:49 36° E 04:57:57 10° SSE visible
09 Dec 7.8 06:24:39 10° NNW 06:27:06 19° WNW 06:29:32 10° WSW visible
09 Dec 9.0 16:58:13 10° SSW 17:01:05 25° W 17:04:00 10° NW visible
10 Dec 9.6 04:13:42 10° ENE 04:15:29 14° E 04:17:16 10° ESE visible
10 Dec 6.5 05:44:59 10° N 05:48:16 48° WNW 05:51:31 10° SSW visible
10 Dec 6.7 16:18:29 10° S 16:21:53 74° WSW 16:25:19 10° NNW visible
11 Dec 7.1 05:05:51 10° NNE 05:09:12 54° E 05:12:29 10° S visible
11 Dec 8.2 06:39:30 10° NNW 06:41:18 14° WNW 06:43:04 10° W visible
11 Dec 9.5 17:13:05 10° SW 17:15:29 18° W 17:17:55 10° NW visible
12 Dec 9.1 04:27:22 10° NE 04:29:52 19° E 04:32:21 10° SE visible
12 Dec 7.0 05:59:24 10° N 06:02:28 33° WNW 06:05:30 10° SW visible
12 Dec 7.5 16:32:49 10° S 16:36:08 49° W 16:39:28 10° NNW visible
13 Dec 6.3 05:20:01 10° NNE 05:23:24 82° ESE 05:26:44 10° SSW visible
13 Dec 8.4 06:55:10 10° NW 06:55:19 10° WNW 06:55:27 10° WNW visible
13 Dec 9.8 17:28:10 10° WSW 17:29:47 13° W 17:31:23 10° WNW visible
